| time (UTC) | temp F | wind direction | speed MPH | gust MPH | rain 1hr in | rain 24hr in | rain mn in | humidity % | barometer mb |
| 20260502195503 | 69 | 0 | 0.0 | 0.0 | 0.00 | 0.00 | 0.00 | 29 | |
| 20260502195003 | 70 | 0 | 0.0 | 0.0 | 0.00 | 0.00 | 0.00 | 29 | |
| 20260502194503 | 70 | 0 | 0.0 | 0.0 | 0.00 | 0.00 | 0.00 | 28 | |
| 20260502194003 | 70 | 222 | 0.0 | 1.0 | 0.00 | 0.00 | 0.00 | 27 | |
| 20260502193503 | 70 | 157 | 0.0 | 1.0 | 0.00 | 0.00 | 0.00 | 26 | |
| 20260502193003 | 70 | 143 | 0.0 | 1.0 | 0.00 | 0.00 | 0.00 | 26 | |
| 20260502192503 | 71 | 131 | 0.0 | 2.0 | 0.00 | 0.00 | 0.00 | 26 | |
| 20260502192003 | 71 | 144 | 0.0 | 2.0 | 0.00 | 0.00 | 0.00 | 25 | |
| 20260502191503 | 71 | 164 | 0.0 | 2.0 | 0.00 | 0.00 | 0.00 | 25 | |
| 20260502191003 | 71 | 139 | 0.0 | 1.0 | 0.00 | 0.00 | 0.00 | 24 | |
| 20260502190503 | 72 | 154 | 0.0 | 2.0 | 0.00 | 0.00 | 0.00 | 24 | |
| 20260502190004 | 72 | 141 | 0.0 | 3.0 | 0.00 | 0.00 | 0.00 | 24 | |
| 20260502185503 | 72 | 141 | 0.0 | 3.0 | 0.00 | 0.00 | 0.00 | 24 | |
| 20260502185003 | 72 | 142 | 0.0 | 3.0 | 0.00 | 0.00 | 0.00 | 23 | |
| 20260502184503 | 73 | 113 | 0.0 | 2.0 | 0.00 | 0.00 | 0.00 | 23 | |
| 20260502184003 | 73 | 140 | 0.0 | 2.0 | 0.00 | 0.00 | 0.00 | 23 | |
| 20260502183503 | 74 | 164 | 0.0 | 2.0 | 0.00 | 0.00 | 0.00 | 23 | |
| 20260502183003 | 74 | 166 | 0.0 | 2.0 | 0.00 | 0.00 | 0.00 | 23 | |
| 20260502182503 | 75 | 239 | 0.0 | 2.0 | 0.00 | 0.00 | 0.00 | 24 | |
| 20260502182003 | 75 | 228 | 0.0 | 2.0 | 0.00 | 0.00 | 0.00 | 23 | |
| 20260502181503 | 76 | 272 | 0.0 | 2.0 | 0.00 | 0.00 | 0.00 | 21 | |
| 20260502181003 | 76 | 307 | 0.0 | 2.0 | 0.00 | 0.00 | 0.00 | 18 | |
| 20260502180503 | 77 | 295 | 0.0 | 2.0 | 0.00 | 0.00 | 0.00 | 17 | |
| 20260502170503 | 81 | 181 | 2.0 | 4.0 | 0.00 | 0.00 | 0.00 | 10 | |
| 20260502164005 | 83 | 201 | 0.0 | 2.0 | 0.00 | 0.00 | 0.00 | 10 | |
| 20260502163505 | 83 | 253 | 0.0 | 1.0 | 0.00 | 0.00 | 0.00 | 10 | |
| 20260502163005 | 84 | 270 | 0.0 | 2.0 | 0.00 | 0.00 | 0.00 | 10 | |
| 20260502162505 | 84 | 263 | 0.0 | 2.0 | 0.00 | 0.00 | 0.00 | 10 | |
| 20260502162005 | 85 | 245 | 0.0 | 2.0 | 0.00 | 0.00 | 0.00 | 10 | |
| 20260502161505 | 87 | 359 | 0.0 | 2.0 | 0.00 | 0.00 | 0.00 | 10 | |
| 20260502161005 | 87 | 68 | 0.0 | 2.0 | 0.00 | 0.00 | 0.00 | 10 | |
| 20260502160505 | 87 | 98 | 0.0 | 2.0 | 0.00 | 0.00 | 0.00 | 10 | |
| 20260502152005 | 89 | 74 | 0.0 | 3.0 | 0.00 | 0.00 | 0.00 | 10 | |
| 20260502151505 | 89 | 169 | 0.0 | 3.0 | 0.00 | 0.00 | 0.00 | 10 | |
| 20260502151005 | 89 | 223 | 0.0 | 1.0 | 0.00 | 0.00 | 0.00 | 10 | |
| 20260502150505 | 89 | 202 | 0.0 | 2.0 | 0.00 | 0.00 | 0.00 | 10 | |
| 20260502130505 | 87 | 245 | 0.0 | 2.0 | 0.00 | 0.00 | 0.00 | 10 | |
| 20260502123505 | 86 | 279 | 1.0 | 3.0 | 0.00 | 0.00 | 0.00 | 10 | |
| 20260502123005 | 86 | 255 | 2.0 | 3.0 | 0.00 | 0.00 | 0.00 | 10 | |
| 20260502122505 | 86 | 215 | 1.0 | 2.0 | 0.00 | 0.00 | 0.00 | 10 | |
| 20260502122005 | 86 | 251 | 0.0 | 2.0 | 0.00 | 0.00 | 0.00 | 10 | |
| 20260502121505 | 86 | 218 | 1.0 | 2.0 | 0.00 | 0.00 | 0.00 | 10 | |
| 20260502121005 | 85 | 190 | 1.0 | 2.0 | 0.00 | 0.00 | 0.00 | 10 | |
| 20260502120505 | 83 | 234 | 0.0 | 3.0 | 0.00 | 0.00 | 0.00 | 11 | |
| 20260502115505 | 83 | 269 | 0.0 | 2.0 | 0.00 | 0.00 | 0.00 | 12 | |
| 20260502115005 | 82 | 122 | 0.0 | 5.0 | 0.00 | 0.00 | 0.00 | 12 | |
| 20260502114505 | 82 | 132 | 0.0 | 5.0 | 0.00 | 0.00 | 0.00 | 11 | |
| 20260502114005 | 82 | 150 | 1.0 | 3.0 | 0.00 | 0.00 | 0.00 | 11 | |
| 20260502113505 | 83 | 240 | 1.0 | 3.0 | 0.00 | 0.00 | 0.00 | 10 | |
| 20260502113005 | 83 | 249 | 0.0 | 2.0 | 0.00 | 0.00 | 0.00 | 12 | |
| 20260502112505 | 83 | 143 | 0.0 | 4.0 | 0.00 | 0.00 | 0.00 | 12 | |
| 20260502112005 | 83 | 140 | 0.0 | 4.0 | 0.00 | 0.00 | 0.00 | 12 | |
| 20260502111505 | 83 | 178 | 0.0 | 3.0 | 0.00 | 0.00 | 0.00 | 12 | |
| 20260502111005 | 83 | 156 | 2.0 | 3.0 | 0.00 | 0.00 | 0.00 | 10 | |
| 20260502110505 | 83 | 160 | 0.0 | 2.0 | 0.00 | 0.00 | 0.00 | 13 | |
| 20260502110005 | 83 | 191 | 0.0 | 2.0 | 0.00 | 0.00 | 0.00 | 13 | |
| 20260502105505 | 83 | 182 | 0.0 | 2.0 | 0.00 | 0.00 | 0.00 | 12 | |
| 20260502105005 | 82 | 162 | 0.0 | 2.0 | 0.00 | 0.00 | 0.00 | 14 | |
| 20260502104505 | 82 | 151 | 0.0 | 3.0 | 0.00 | 0.00 | 0.00 | 14 | |
| 20260502104005 | 81 | 160 | 0.0 | 3.0 | 0.00 | 0.00 | 0.00 | 14 | |
| 20260502103505 | 80 | 134 | 0.0 | 3.0 | 0.00 | 0.00 | 0.00 | 17 | |
| 20260502103005 | 78 | 131 | 0.0 | 4.0 | 0.00 | 0.00 | 0.00 | 15 | |
| 20260502102505 | 78 | 137 | 0.0 | 4.0 | 0.00 | 0.00 | 0.00 | 15 | |
| 20260502102005 | 78 | 143 | 0.0 | 6.0 | 0.00 | 0.00 | 0.00 | 16 | |
| 20260502101505 | 77 | 144 | 0.0 | 6.0 | 0.00 | 0.00 | 0.00 | 15 | |
| 20260502101005 | 78 | 168 | 2.0 | 4.0 | 0.00 | 0.00 | 0.00 | 13 | |
| 20260502100505 | 78 | 269 | 0.0 | 2.0 | 0.00 | 0.00 | 0.00 | 16 | |
| 20260502091505 | 74 | 162 | 0.0 | 4.0 | 0.00 | 0.00 | 0.00 | 16 | |
| 20260502091005 | 75 | 172 | 2.0 | 4.0 | 0.00 | 0.00 | 0.00 | 14 | |
| 20260502090505 | 73 | 165 | 0.0 | 3.0 | 0.00 | 0.00 | 0.00 | 18 | |
| 20260502071505 | 63 | 136 | 0.0 | 4.0 | 0.00 | 0.00 | 0.00 | 28 | |
| 20260502071005 | 63 | 191 | 0.0 | 2.0 | 0.00 | 0.00 | 0.00 | 28 | |
| 20260502070505 | 61 | 194 | 0.0 | 2.0 | 0.00 | 0.00 | 0.00 | 31 | |
| 20260502070005 | 61 | 118 | 0.0 | 4.0 | 0.00 | 0.00 | 0.00 | 31 | |
| 20260502065505 | 60 | 124 | 1.0 | 4.0 | 0.00 | 0.00 | 0.00 | 31 | |
| 20260502065005 | 60 | 150 | 0.0 | 2.0 | 0.00 | 0.00 | 0.00 | 33 | |
| 20260502064505 | 58 | 135 | 0.0 | 2.0 | 0.00 | 0.00 | 0.00 | 36 | |
| 20260502064005 | 57 | 104 | 0.0 | 3.0 | 0.00 | 0.00 | 0.00 | 36 | |
| 20260502063505 | 57 | 86 | 0.0 | 4.0 | 0.00 | 0.00 | 0.00 | 36 | |
| 20260502063005 | 56 | 99 | 0.0 | 4.0 | 0.00 | 0.00 | 0.00 | 36 | |
| 20260502062505 | 56 | 107 | 0.0 | 5.0 | 0.00 | 0.00 | 0.00 | 36 | |
| 20260502062005 | 56 | 112 | 1.0 | 5.0 | 0.00 | 0.00 | 0.00 | 36 | |
| 20260502061505 | 56 | 125 | 1.0 | 6.0 | 0.00 | 0.00 | 0.00 | 37 | |
| 20260502061005 | 56 | 133 | 0.0 | 6.0 | 0.00 | 0.00 | 0.00 | 38 | |
| 20260502060505 | 55 | 122 | 2.0 | 6.0 | 0.00 | 0.00 | 0.00 | 38 | |
| 20260502060005 | 55 | 106 | 2.0 | 6.0 | 0.00 | 0.00 | 0.00 | 38 | |
| 20260502055505 | 54 | 122 | 0.0 | 4.0 | 0.00 | 0.00 | 0.00 | 39 | |
| 20260502055005 | 54 | 104 | 0.0 | 6.0 | 0.00 | 0.00 | 0.00 | 39 | |
| 20260502054505 | 54 | 109 | 2.0 | 6.0 | 0.00 | 0.00 | 0.00 | 39 | |
| 20260502054005 | 54 | 117 | 2.0 | 6.0 | 0.00 | 0.00 | 0.00 | 39 | |
| 20260502053505 | 54 | 94 | 0.0 | 5.0 | 0.00 | 0.00 | 0.00 | 39 | |
| 20260502053005 | 54 | 110 | 0.0 | 5.0 | 0.00 | 0.00 | 0.00 | 39 | |
| 20260502052505 | 54 | 125 | 0.0 | 4.0 | 0.00 | 0.00 | 0.00 | 39 | |
| 20260502052005 | 53 | 117 | 0.0 | 4.0 | 0.00 | 0.00 | 0.00 | 39 | |
| 20260502051505 | 53 | 109 | 0.0 | 4.0 | 0.00 | 0.00 | 0.00 | 40 | |
| 20260502051005 | 53 | 92 | 1.0 | 2.0 | 0.00 | 0.00 | 0.00 | 40 | |
| 20260502050505 | 53 | 117 | 0.0 | 4.0 | 0.00 | 0.00 | 0.00 | 40 | |
| 20260502050005 | 53 | 134 | 0.0 | 4.0 | 0.00 | 0.00 | 0.00 | 40 | |
| 20260502045505 | 53 | 118 | 0.0 | 4.0 | 0.00 | 0.00 | 0.00 | 41 | |
| 20260502045005 | 53 | 119 | 1.0 | 4.0 | 0.00 | 0.00 | 0.00 | 41 | |
| 20260502044505 | 53 | 135 | 1.0 | 4.0 | 0.00 | 0.00 | 0.00 | 41 | |
| 20260502044005 | 53 | 146 | 1.0 | 2.0 | 0.00 | 0.00 | 0.00 | 41 | |
| 20260502043505 | 53 | 141 | 1.0 | 3.0 | 0.00 | 0.00 | 0.00 | 41 | |
| 20260502043005 | 53 | 154 | 0.0 | 3.0 | 0.00 | 0.00 | 0.00 | 41 | |
| 20260502042505 | 53 | 141 | 1.0 | 3.0 | 0.00 | 0.00 | 0.00 | 41 | |
| 20260502042005 | 53 | 144 | 1.0 | 3.0 | 0.00 | 0.00 | 0.00 | 41 | |
| 20260502041504 | 53 | 168 | 0.0 | 4.0 | 0.00 | 0.00 | 0.00 | 41 | |
| 20260502041005 | 53 | 178 | 0.0 | 4.0 | 0.00 | 0.00 | 0.00 | 41 | |
| 20260502040504 | 53 | 167 | 1.0 | 4.0 | 0.00 | 0.00 | 0.00 | 41 | |
| 20260502040005 | 53 | 132 | 1.0 | 4.0 | 0.00 | 0.00 | 0.00 | 41 | |
| 20260502035505 | 53 | 120 | 2.0 | 5.0 | 0.00 | 0.00 | 0.00 | 42 | |
| 20260502035005 | 53 | 115 | 0.0 | 5.0 | 0.00 | 0.00 | 0.00 | 42 | |
| 20260502034504 | 53 | 122 | 0.0 | 4.0 | 0.00 | 0.00 | 0.00 | 42 | |
| 20260502034005 | 53 | 123 | 1.0 | 4.0 | 0.00 | 0.00 | 0.00 | 42 | |
| 20260502033505 | 53 | 136 | 0.0 | 3.0 | 0.00 | 0.00 | 0.00 | 43 | |
| 20260502033004 | 53 | 128 | 0.0 | 2.0 | 0.00 | 0.00 | 0.00 | 44 | |
| 20260502032504 | 53 | 127 | 0.0 | 4.0 | 0.00 | 0.00 | 0.00 | 44 | |
| 20260502032004 | 53 | 133 | 0.0 | 4.0 | 0.00 | 0.00 | 0.00 | 44 | |
| 20260502031504 | 53 | 130 | 1.0 | 3.0 | 0.00 | 0.00 | 0.00 | 44 | |
| 20260502031005 | 53 | 108 | 0.0 | 2.0 | 0.00 | 0.00 | 0.00 | 45 | |
| 20260502030504 | 53 | 117 | 0.0 | 2.0 | 0.00 | 0.00 | 0.00 | 46 | |
| 20260502030005 | 53 | 142 | 0.0 | 2.0 | 0.00 | 0.00 | 0.00 | 46 | |
| 20260502025504 | 53 | 139 | 0.0 | 2.0 | 0.00 | 0.00 | 0.00 | 47 | |
| 20260502025004 | 53 | 136 | 0.0 | 2.0 | 0.00 | 0.00 | 0.00 | 47 | |
| 20260502024504 | 53 | 140 | 0.0 | 2.0 | 0.00 | 0.00 | 0.00 | 47 | |
| 20260502024004 | 53 | 135 | 1.0 | 2.0 | 0.00 | 0.00 | 0.00 | 47 | |
| 20260502023504 | 52 | 126 | 0.0 | 2.0 | 0.00 | 0.00 | 0.00 | 48 | |
| 20260502023005 | 52 | 141 | 0.0 | 2.0 | 0.00 | 0.00 | 0.00 | 48 | |
| 20260502022504 | 52 | 174 | 0.0 | 2.0 | 0.00 | 0.00 | 0.00 | 48 | |
| 20260502022004 | 52 | 160 | 0.0 | 3.0 | 0.00 | 0.00 | 0.00 | 48 | |
| 20260502021504 | 52 | 136 | 1.0 | 3.0 | 0.00 | 0.00 | 0.00 | 47 | |
| 20260502021004 | 52 | 135 | 0.0 | 3.0 | 0.00 | 0.00 | 0.00 | 47 | |
| 20260502020504 | 53 | 140 | 1.0 | 3.0 | 0.00 | 0.00 | 0.00 | 48 | |
| 20260502020004 | 53 | 152 | 1.0 | 3.0 | 0.00 | 0.00 | 0.00 | 48 | |
| 20260502015504 | 52 | 146 | 0.0 | 2.0 | 0.00 | 0.00 | 0.00 | 48 | |
| 20260502015004 | 52 | 140 | 1.0 | 2.0 | 0.00 | 0.00 | 0.00 | 47 | |
| 20260502014504 | 53 | 135 | 1.0 | 2.0 | 0.00 | 0.00 | 0.00 | 48 | |
| 20260502014004 | 52 | 133 | 0.0 | 2.0 | 0.00 | 0.00 | 0.00 | 48 | |
| 20260502013504 | 52 | 136 | 0.0 | 2.0 | 0.00 | 0.00 | 0.00 | 47 | |
| 20260502013004 | 53 | 151 | 0.0 | 2.0 | 0.00 | 0.00 | 0.00 | 47 | |
| 20260502012504 | 53 | 147 | 0.0 | 2.0 | 0.00 | 0.00 | 0.00 | 48 | |
| 20260502012004 | 53 | 142 | 0.0 | 2.0 | 0.00 | 0.00 | 0.00 | 47 | |
| 20260502011504 | 53 | 142 | 0.0 | 2.0 | 0.00 | 0.00 | 0.00 | 47 | |
| 20260502011004 | 53 | 135 | 0.0 | 1.0 | 0.00 | 0.00 | 0.00 | 47 | |
| 20260502010504 | 53 | 135 | 0.0 | 2.0 | 0.00 | 0.00 | 0.00 | 45 | |
| 20260502010005 | 53 | 145 | 0.0 | 2.0 | 0.00 | 0.00 | 0.00 | 45 | |
| 20260502005504 | 53 | 145 | 0.0 | 2.0 | 0.00 | 0.00 | 0.00 | 45 | |
| 20260502005004 | 53 | 135 | 0.0 | 2.0 | 0.00 | 0.00 | 0.00 | 44 | |
| 20260502004504 | 54 | 137 | 0.0 | 2.0 | 0.00 | 0.00 | 0.00 | 43 | |
| 20260502004005 | 54 | 140 | 0.0 | 2.0 | 0.00 | 0.00 | 0.00 | 43 | |
| 20260502003504 | 54 | 144 | 1.0 | 2.0 | 0.00 | 0.00 | 0.00 | 43 | |
| 20260502003004 | 54 | 155 | 0.0 | 1.0 | 0.00 | 0.00 | 0.00 | 43 | |
| 20260502002504 | 54 | 152 | 0.0 | 2.0 | 0.00 | 0.00 | 0.00 | 43 | |
| 20260502002004 | 54 | 155 | 0.0 | 2.0 | 0.00 | 0.00 | 0.00 | 43 | |
| 20260502001504 | 54 | 151 | 0.0 | 2.0 | 0.00 | 0.00 | 0.00 | 43 | |
| 20260502001004 | 54 | 137 | 0.0 | 1.0 | 0.00 | 0.00 | 0.00 | 43 | |
| 20260502000504 | 55 | 139 | 0.0 | 2.0 | 0.00 | 0.00 | 0.00 | 41 | |
| 20260502000005 | 55 | 141 | 0.0 | 2.0 | 0.00 | 0.00 | 0.00 | 41 | |
| 20260501235504 | 55 | 180 | 0.0 | 1.0 | 0.00 | 0.00 | 0.00 | 42 | |
| 20260501235004 | 55 | 170 | 0.0 | 2.0 | 0.00 | 0.00 | 0.00 | 42 | |
| 20260501234504 | 55 | 153 | 0.0 | 2.0 | 0.00 | 0.00 | 0.00 | 42 | |
| 20260501234004 | 55 | 134 | 0.0 | 2.0 | 0.00 | 0.00 | 0.00 | 41 | |
| 20260501233504 | 55 | 135 | 1.0 | 2.0 | 0.00 | 0.00 | 0.00 | 40 | |
| 20260501233004 | 55 | 139 | 0.0 | 2.0 | 0.00 | 0.00 | 0.00 | 40 | |
| 20260501232504 | 55 | 141 | 0.0 | 2.0 | 0.00 | 0.00 | 0.00 | 40 | |
| 20260501232004 | 55 | 142 | 0.0 | 2.0 | 0.00 | 0.00 | 0.00 | 39 | |
| 20260501231504 | 55 | 181 | 0.0 | 1.0 | 0.00 | 0.00 | 0.00 | 39 | |
| 20260501231004 | 55 | 258 | 0.0 | 1.0 | 0.00 | 0.00 | 0.00 | 39 | |
| 20260501230504 | 56 | 183 | 0.0 | 2.0 | 0.00 | 0.00 | 0.00 | 38 | |
| 20260501230004 | 56 | 156 | 0.0 | 2.0 | 0.00 | 0.00 | 0.00 | 38 | |
| 20260501225504 | 56 | 157 | 0.0 | 2.0 | 0.00 | 0.00 | 0.00 | 39 | |
| 20260501225004 | 56 | 153 | 0.0 | 2.0 | 0.00 | 0.00 | 0.00 | 38 | |
| 20260501224505 | 56 | 157 | 0.0 | 2.0 | 0.00 | 0.00 | 0.00 | 36 | |
| 20260501224004 | 57 | 152 | 0.0 | 2.0 | 0.00 | 0.00 | 0.00 | 36 | |
| 20260501223504 | 57 | 141 | 0.0 | 2.0 | 0.00 | 0.00 | 0.00 | 35 | |
| 20260501223004 | 57 | 139 | 0.0 | 2.0 | 0.00 | 0.00 | 0.00 | 35 | |
| 20260501222504 | 58 | 146 | 0.0 | 2.0 | 0.00 | 0.00 | 0.00 | 34 | |
| 20260501222004 | 58 | 137 | 0.0 | 2.0 | 0.00 | 0.00 | 0.00 | 34 | |
| 20260501221504 | 58 | 138 | 1.0 | 2.0 | 0.00 | 0.00 | 0.00 | 34 | |
| 20260501221004 | 58 | 152 | 0.0 | 2.0 | 0.00 | 0.00 | 0.00 | 34 | |
| 20260501220504 | 59 | 0 | 0.0 | 0.0 | 0.00 | 0.00 | 0.00 | 34 | |
| 20260501220005 | 59 | 174 | 0.0 | 1.0 | 0.00 | 0.00 | 0.00 | 34 | |
| 20260501215504 | 58 | 151 | 0.0 | 1.0 | 0.00 | 0.00 | 0.00 | 33 | |
| 20260501215004 | 59 | 150 | 0.0 | 1.0 | 0.00 | 0.00 | 0.00 | 33 | |
| 20260501214504 | 59 | 146 | 0.0 | 2.0 | 0.00 | 0.00 | 0.00 | 33 | |
| 20260501214004 | 59 | 137 | 0.0 | 2.0 | 0.00 | 0.00 | 0.00 | 32 | |
| 20260501213504 | 59 | 141 | 0.0 | 2.0 | 0.00 | 0.00 | 0.00 | 30 | |
| 20260501213004 | 60 | 150 | 0.0 | 2.0 | 0.00 | 0.00 | 0.00 | 30 | |
| 20260501212504 | 60 | 0 | 0.0 | 0.0 | 0.00 | 0.00 | 0.00 | 30 | |
| 20260501212004 | 60 | 0 | 0.0 | 0.0 | 0.00 | 0.00 | 0.00 | 29 | |
| 20260501211504 | 60 | 0 | 0.0 | 0.0 | 0.00 | 0.00 | 0.00 | 28 | |
| 20260501211004 | 60 | 0 | 0.0 | 0.0 | 0.00 | 0.00 | 0.00 | 26 | |
| 20260501210505 | 61 | 0 | 0.0 | 0.0 | 0.00 | 0.00 | 0.00 | 24 | |
| 20260501210004 | 61 | 225 | 0.0 | 1.0 | 0.00 | 0.00 | 0.00 | 24 | |
| 20260501205504 | 62 | 225 | 0.0 | 1.0 | 0.00 | 0.00 | 0.00 | 24 | |
| 20260501205004 | 62 | 135 | 0.0 | 1.0 | 0.00 | 0.00 | 0.00 | 23 | |
| 20260501204505 | 62 | 135 | 0.0 | 1.0 | 0.00 | 0.00 | 0.00 | 22 | |
| 20260501204004 | 63 | 180 | 0.0 | 1.0 | 0.00 | 0.00 | 0.00 | 22 | |
| 20260501203504 | 63 | 134 | 0.0 | 2.0 | 0.00 | 0.00 | 0.00 | 21 | |
| 20260501203004 | 64 | 135 | 0.0 | 2.0 | 0.00 | 0.00 | 0.00 | 21 | |
| 20260501202504 | 64 | 150 | 0.0 | 2.0 | 0.00 | 0.00 | 0.00 | 21 | |
| 20260501202004 | 64 | 225 | 0.0 | 1.0 | 0.00 | 0.00 | 0.00 | 20 | |
| 20260501201504 | 64 | 0 | 0.0 | 0.0 | 0.00 | 0.00 | 0.00 | 19 | |
| 20260501201004 | 65 | 0 | 0.0 | 0.0 | 0.00 | 0.00 | 0.00 | 18 | |
| 20260501200504 | 66 | 0 | 0.0 | 0.0 | 0.00 | 0.00 | 0.00 | 15 | |
| 20260501200004 | 66 | 0 | 0.0 | 0.0 | 0.00 | 0.00 | 0.00 | 15 |